Wind_Gust
20 19 20 15 16 15 15 15 15 15 16 16 16 17 17 18 18 18 19 19 19 19 19 19 20 20 20 20 21 23 19 17 20 15 8 30 10 16 14 6 7 5 11 5 2 1 1 2 4 1 6 6 5 7 7 4 5 5 9 10 6 9 6 10 9 12 3 6 11 11 6 5 2 5 10 21 19 18 17 14 8 15 15 14 16 20 21 22
21 20 19 20 16 15 16 15 15 16 16 16 16 17 17 18 18 18 19 20 20 19 19 18 20 19 19 20 21 20 17 12 19 19 34 18 14 20 21 19 7 9 9 6 5 3 6 2 2 3 9 7 2 6 5 10 5 9 7 9 16 10 15 8 6 8 4 11 9 12 5 4 5 6 7 18 12 16 19 13 11 17 16 19 19 21 23 21
20 21 20 20 20 17 15 16 15 15 16 16 16 16 17 18 18 18 19 19 20 19 19 19 19 19 20 19 19 16 15 18 11 18 30 18 33 26 24 19 16 10 4 4 4 8 6 9 8 7 4 7 3 6 4 9 10 9 11 11 13 10 8 6 6 9 8 8 15 13 9 3 9 4 4 13 18 14 23 25 16 19 21 23 21 21 20 20
20 20 21 21 20 20 18 17 17 17 15 16 17 16 16 17 18 18 18 19 19 19 18 19 19 19 20 19 18 11 10 9 13 15 5 10 19 21 27 24 17 15 4 3 5 8 4 8 6 7 6 5 6 2 12 9 14 8 9 14 9 8 8 9 10 13 13 4 7 9 9 5 6 3 10 19 19 7 11 23 31 25 28 27 23 21 20 20
21 20 20 21 22 21 19 19 19 18 16 16 17 17 17 17 18 18 18 19 19 18 18 18 19 18 19 19 16 6 9 7 15 5 5 12 8 15 19 24 17 12 12 5 6 2 4 3 6 3 7 11 3 3 6 5 8 9 12 7 8 2 4 12 9 8 5 5 3 7 8 5 3 7 11 18 27 25 30 20 16 32 31 35 28 22 21 20
21 21 21 21 22 22 22 20 19 18 17 16 16 16 17 16 17 17 18 18 18 18 17 17 18 18 18 16 10 3 4 17 4 3 17 13 10 12 15 18 20 15 11 8 7 5 8 2 5 8 8 6 7 12 6 5 4 11 6 5 8 9 10 6 3 5 3 6 7 14 3 2 6 9 8 5 5 8 11 11 11 15 26 25 22 25 23 19
21 21 21 21 21 21 21 20 19 19 18 18 17 16 16 16 16 17 18 18 18 17 17 17 17 18 16 10 6 3 9 29 4 8 19 17 14 14 11 16 21 16 12 11 6 13 5 6 6 5 9 5 2 10 6 2 1 7 13 2 8 6 12 10 13 10 5 4 11 12 2 6 11 13 4 6 6 12 12 17 21 22 23 24 24 18 19 20
22 22 21 21 21 21 21 21 21 20 19 19 19 16 16 16 16 16 17 17 17 17 17 16 16 17 14 8 9 5 4 27 14 6 19 21 16 13 10 14 20 17 14 16 14 9 8 11 12 8 8 15 7 12 3 3 1 7 9 5 8 3 9 8 7 10 6 5 12 6 4 4 5 12 6 8 8 16 19 20 23 22 21 20 19 20 19 16
22 22 21 21 21 20 20 20 21 21 21 20 18 16 16 15 15 14 15 17 17 16 16 16 15 14 9 3 4 8 24 18 4 10 16 18 15 9 9 15 13 20 16 11 8 9 13 11 7 9 9 5 4 7 3 6 12 10 11 6 6 9 8 8 8 10 2 4 3 9 8 10 16 16 17 8 17 15 22 21 20 21 23 22 18 16 14 14
23 22 21 21 21 20 20 20 21 21 20 21 19 17 15 14 14 13 14 15 17 16 15 14 14 12 8 7 4 8 16 5 5 11 11 14 14 7 10 7 14 13 16 7 5 8 10 13 11 6 8 4 5 7 3 7 9 4 6 6 9 11 6 5 5 6 3 5 7 10 6 10 5 8 8 5 7 21 20 20 18 20 22 18 15 14 12 15
22 22 22 22 21 21 19 19 21 22 21 21 20 18 16 14 12 12 13 14 16 16 14 14 14 9 6 5 7 20 9 4 3 10 12 11 11 8 4 5 4 15 12 7 10 10 6 10 5 7 3 11 8 4 5 7 2 5 5 3 6 10 7 10 6 14 3 5 6 20 6 3 8 5 16 15 3 12 18 18 20 17 18 17 16 14 15 16
22 22 22 22 21 21 20 19 19 21 23 21 19 18 17 14 10 9 12 13 15 15 14 14 12 6 7 9 16 31 5 6 11 14 15 9 10 7 6 5 4 7 15 13 9 4 7 7 6 7 11 4 6 1 4 4 1 3 1 4 9 11 11 3 8 5 8 4 7 11 12 4 10 5 15 16 11 13 16 19 18 16 15 16 16 18 16 15
21 21 21 21 21 21 21 19 19 19 20 21 21 19 17 16 11 11 11 12 12 14 14 13 8 3 7 17 29 33 29 25 20 17 19 5 9 7 8 4 3 5 6 11 8 6 4 5 3 6 3 7 6 13 4 2 4 1 4 3 7 10 10 10 2 2 2 4 16 12 11 10 9 5 15 11 17 19 17 14 19 14 14 13 15 18 18 17
21 21 21 21 21 21 20 19 19 19 18 19 18 19 18 15 14 11 10 12 14 14 13 13 3 4 7 22 21 11 8 9 11 18 18 4 2 7 1 2 4 3 4 5 4 6 6 2 4 2 2 3 7 3 5 7 6 8 3 8 4 2 11 9 6 2 9 6 15 4 11 8 6 9 9 9 13 22 26 15 24 22 21 17 17 16 19 18
22 21 20 20 20 20 20 19 20 20 18 18 17 18 18 12 14 10 11 11 12 13 13 9 3 6 10 29 12 20 24 14 11 17 10 5 3 7 4 4 4 6 7 7 8 5 9 4 5 5 9 4 3 4 6 4 7 4 7 8 8 6 12 14 6 6 13 6 4 13 4 9 14 13 16 15 13 18 20 20 21 21 18 18 16 18 18 16
22 22 20 20 19 19 19 19 19 19 19 16 16 16 18 17 15 12 11 11 13 13 4 3 3 6 10 31 18 9 5 5 8 10 11 11 6 8 2 5 4 5 8 4 6 6 5 10 10 14 6 3 9 11 7 4 4 9 6 4 5 2 9 11 4 4 4 8 5 6 10 9 7 10 15 16 21 16 17 15 21 19 12 18 16 16 17 17
22 21 21 20 19 18 18 18 19 19 18 15 15 15 17 15 14 11 12 12 9 3 5 7 3 9 11 13 10 4 5 8 7 6 5 8 11 8 5 2 5 6 5 7 6 9 4 11 6 8 4 9 9 11 8 3 6 8 5 8 8 6 5 8 13 3 4 4 8 9 19 12 6 18 18 13 18 20 18 19 18 17 17 13 13 15 16 14
22 21 21 21 18 17 17 17 18 18 16 14 12 11 15 11 13 12 8 3 1 4 6 3 4 7 34 15 15 6 5 9 14 13 10 4 8 6 5 7 3 8 8 7 3 9 8 12 9 13 5 9 8 9 21 21 19 10 7 5 4 3 3 7 11 6 2 9 13 7 13 15 5 14 13 13 17 19 18 24 25 18 16 17 11 14 14 13
21 21 20 20 18 18 17 16 17 17 14 15 12 11 15 14 6 3 5 4 6 4 7 14 15 17 7 5 6 8 16 19 14 4 6 7 5 6 4 5 9 12 10 10 9 10 9 8 7 8 19 14 18 13 13 6 11 9 11 11 6 8 7 7 9 7 4 8 14 11 13 9 8 12 18 28 23 18 22 14 10 17 15 19 16 15 15 15
22 20 21 19 18 17 17 17 16 17 13 8 7 9 7 6 5 10 4 5 12 11 7 5 20 9 17 7 4 12 16 4 6 5 5 3 15 7 5 7 4 7 12 16 8 11 12 14 20 24 16 11 7 11 10 8 8 7 5 7 5 4 6 7 5 4 6 12 15 6 8 10 12 12 12 14 25 16 15 8 12 16 17 18 17 19 19 16
22 20 20 20 19 17 16 16 15 14 12 8 8 8 10 10 6 12 6 12 18 17 21 16 18 23 26 11 15 22 25 13 2 6 6 2 4 14 10 9 8 6 8 11 17 6 11 11 15 4 8 11 12 11 9 7 3 6 6 4 2 3 5 3 4 12 9 10 10 8 16 14 12 11 9 6 20 15 12 13 11 12 13 15 19 20 18 15
21 20 18 19 18 17 16 15 14 12 10 7 10 13 6 4 4 7 7 16 7 17 18 24 18 22 22 23 14 6 5 11 18 8 11 6 9 22 7 10 9 14 4 9 10 12 15 20 7 6 11 11 9 10 10 11 5 3 6 4 4 9 6 6 5 8 10 12 8 6 17 12 11 13 12 8 15 18 14 7 14 18 19 18 16 20 18 15
21 19 17 16 16 16 16 14 10 11 8 9 10 9 10 5 7 6 5 12 21 16 19 20 18 23 25 17 14 7 5 13 19 10 8 7 7 12 13 12 10 9 9 9 18 11 12 11 11 6 12 15 5 9 10 7 6 8 4 6 9 7 6 8 5 6 10 10 14 9 18 10 9 14 14 7 7 15 15 13 14 12 24 17 15 18 17 16
21 18 16 15 14 14 13 11 6 6 9 12 12 11 6 7 5 10 7 10 15 9 16 20 23 19 20 15 15 17 11 12 10 11 8 11 16 8 17 11 11 12 15 8 9 15 10 4 12 11 11 16 12 8 13 13 9 2 7 8 7 4 5 8 5 6 10 16 13 18 14 8 5 10 9 9 7 16 16 12 13 12 17 16 15 17 13 15
20 17 15 14 14 12 11 6 5 9 5 10 13 6 7 10 7 3 6 11 12 20 10 13 12 13 13 9 9 14 8 10 14 8 6 7 12 15 10 13 16 13 10 9 10 10 7 4 12 15 7 8 13 10 12 15 9 7 6 9 9 5 9 6 5 6 8 5 6 6 11 6 5 6 10 8 9 13 9 15 12 9 12 13 13 12 14 15
20 17 13 13 9 8 10 7 7 6 11 10 9 7 9 9 6 8 7 9 16 11 7 14 22 20 26 10 15 12 5 15 13 23 10 8 6 12 15 15 17 15 8 13 15 16 13 3 12 15 11 8 9 11 8 12 12 10 15 10 7 8 10 8 4 9 4 12 13 5 14 9 5 11 10 12 10 14 9 11 13 13 16 10 10 7 13 16
18 15 13 8 7 13 9 12 2 11 9 10 8 7 4 7 4 9 11 10 12 21 21 6 15 20 23 18 22 12 9 18 5 6 11 11 8 5 18 9 11 8 13 14 15 18 12 6 9 7 13 15 10 14 12 15 16 15 4 12 10 12 11 6 8 5 9 4 5 4 6 13 10 10 9 11 12 13 12 9 5 11 16 16 11 6 13 14
17 16 12 8 8 14 4 6 10 10 10 6 5 7 6 2 3 8 7 11 20 13 11 10 17 12 8 17 19 25 9 6 18 11 11 8 5 6 11 10 14 13 10 12 20 5 12 12 12 10 8 14 19 10 9 13 19 13 5 13 13 13 9 7 5 4 4 7 5 8 2 12 8 10 10 15 15 11 13 15 13 12 13 20 11 12 15 14
15 16 11 7 8 15 3 7 7 11 6 5 2 6 4 2 6 11 10 13 10 16 13 17 11 9 5 15 16 20 4 4 7 10 8 4 6 9 14 10 13 12 3 13 15 6 8 15 14 14 14 19 9 9 16 14 11 5 8 6 8 7 6 10 6 4 3 6 9 11 8 13 5 13 14 13 14 18 20 19 18 16 17 12 14 13 16 14
15 14 11 5 6 6 4 4 9 6 7 7 2 3 3 6 8 8 10 12 8 7 6 9 12 12 12 21 16 13 6 6 5 12 10 15 10 2 5 9 13 13 8 5 9 12 4 3 17 19 21 12 10 7 15 12 6 9 13 9 5 8 5 6 8 8 6 12 12 13 9 12 12 15 20 24 28 28 17 14 17 19 17 16 12 16 16 14
16 14 14 9 4 4 5 6 9 7 5 5 6 8 11 9 12 9 8 11 7 5 7 10 10 15 20 21 21 12 7 5 5 18 17 10 9 4 11 9 7 11 7 6 10 8 4 5 11 12 12 11 11 10 5 14 9 15 13 10 10 4 7 8 7 5 15 19 4 10 16 10 16 10 14 14 3 20 30 24 24 23 22 19 14 15 17 14
15 13 10 6 6 2 6 7 4 1 4 3 5 12 11 14 7 12 13 7 13 7 6 7 6 19 18 8 12 21 21 4 4 21 26 24 12 17 22 19 22 21 16 10 11 4 10 6 6 5 15 17 16 13 4 7 6 12 10 8 16 12 13 16 9 16 19 19 5 4 15 7 14 13 19 22 8 17 14 20 25 23 23 20 14 17 13 14
14 12 10 6 9 3 6 6 7 4 1 4 10 8 9 8 14 10 10 12 11 11 10 3 11 9 15 9 12 15 5 9 5 11 16 13 17 9 2 12 9 18 19 5 9 12 11 6 5 6 7 17 17 25 13 12 12 14 19 19 18 15 18 19 14 13 10 8 5 3 7 15 6 7 8 12 12 17 15 15 17 19 21 22 18 17 16 13
14 12 5 6 6 8 5 4 3 4 3 8 9 8 4 6 10 7 5 6 9 14 10 8 5 7 14 21 11 18 11 4 7 19 17 21 18 22 13 5 13 7 13 10 23 17 13 18 21 10 15 10 21 16 18 12 13 13 9 20 17 15 25 22 18 23 14 9 7 3 17 16 12 9 8 10 15 20 19 19 17 16 17 19 17 18 17 14
15 9 2 6 5 11 13 10 4 5 5 5 9 11 9 14 5 6 4 13 10 13 8 12 8 11 9 7 4 14 9 13 6 11 12 23 26 26 25 19 5 11 9 23 14 18 20 15 12 14 5 15 17 8 14 13 10 8 11 14 12 24 12 7 14 11 11 11 7 8 13 4 7 7 9 9 19 22 24 21 20 17 19 19 17 18 16 11
9 6 3 7 3 4 6 7 6 5 4 5 10 13 10 6 6 6 8 11 12 18 21 13 12 9 8 7 4 15 8 9 6 14 10 15 10 19 8 14 22 12 17 23 13 13 10 24 3 8 5 13 14 13 13 16 27 15 14 24 21 8 11 9 4 3 5 8 11 9 7 9 7 5 12 16 23 23 23 20 21 19 19 20 18 17 16 14
7 9 5 5 3 3 5 5 7 5 3 6 7 7 8 8 5 8 13 15 18 18 10 10 17 10 14 17 11 14 11 8 7 14 16 9 15 13 17 8 8 8 10 18 8 9 20 10 5 10 12 9 8 21 10 14 14 19 22 18 7 6 10 11 11 6 7 14 17 6 9 11 12 14 14 15 23 24 24 20 20 23 20 18 17 18 17 15
8 6 4 4 5 2 3 5 3 1 4 5 9 9 5 7 5 9 10 17 19 11 8 5 10 9 13 10 10 16 6 8 7 9 11 10 20 8 11 18 7 15 10 2 18 13 11 8 12 9 14 12 4 10 10 8 13 20 16 11 27 15 21 10 12 9 9 13 15 10 7 8 13 11 21 22 23 23 23 23 23 24 21 21 19 18 16 15
4 2 5 6 5 3 2 3 4 4 4 5 5 10 7 7 6 8 11 15 15 15 9 5 6 5 9 9 7 5 8 16 8 7 19 17 11 12 18 12 10 9 12 8 6 9 7 10 8 6 15 10 12 16 24 20 8 5 11 21 10 13 13 15 24 11 16 9 8 11 7 20 19 18 25 23 28 27 25 25 24 23 20 20 21 19 20 18
6 5 6 4 5 2 1 2 4 4 6 3 3 8 6 12 10 9 14 11 13 10 5 4 3 4 6 3 6 12 5 8 10 9 6 12 12 3 16 11 14 13 8 6 7 5 9 6 7 10 5 13 22 26 23 23 24 11 14 17 13 17 7 14 8 12 14 20 15 15 16 19 12 18 25 28 30 23 29 25 21 20 21 20 21 21 19 18
3 8 5 3 2 5 5 5 7 6 3 3 5 7 7 10 11 11 16 14 17 13 13 7 6 3 4 7 5 4 12 6 9 9 8 9 13 11 11 15 15 17 9 4 5 6 9 10 12 7 13 18 11 9 9 17 17 16 19 16 14 13 12 19 19 8 11 15 17 16 22 12 11 6 24 24 23 21 21 23 17 20 21 20 20 19 20 19
5 8 8 5 4 5 6 7 7 3 3 4 5 5 11 12 11 12 14 7 9 14 9 9 4 4 3 4 5 5 12 10 6 6 5 10 7 5 8 11 14 14 24 20 12 8 11 11 10 6 13 12 9 4 8 17 16 16 18 15 13 10 15 17 20 11 8 7 6 8 7 9 7 8 5 20 21 21 21 24 21 19 20 18 18 18 16 18
10 3 5 2 3 4 7 3 2 2 4 6 7 12 11 12 9 11 12 7 9 8 5 6 6 3 5 5 2 5 9 13 10 11 6 5 6 15 9 15 12 17 16 16 8 13 8 9 11 7 10 10 7 5 2 10 18 8 16 11 15 17 14 17 16 15 15 7 7 6 9 12 7 4 8 19 18 18 20 21 24 21 18 18 18 18 18 17
4 4 6 1 2 6 6 5 5 2 7 7 7 12 8 11 8 12 9 6 6 10 5 5 3 4 3 3 3 6 6 14 6 11 9 4 9 11 9 11 15 20 21 16 22 9 21 9 14 7 8 6 8 8 6 3 10 17 17 14 17 12 6 6 10 5 14 16 15 16 16 10 4 3 13 21 22 20 20 19 25 22 17 18 18 17 17 19
5 3 2 3 2 3 7 6 7 5 7 9 11 10 11 9 12 18 15 13 9 9 3 7 6 2 5 2 3 2 3 5 13 8 7 8 12 3 5 12 10 11 10 10 9 14 13 8 13 11 17 17 20 23 22 13 19 11 6 12 12 16 12 11 13 9 19 7 7 14 12 10 7 11 17 21 22 20 19 20 18 23 21 19 17 17 18 19
3 6 5 4 4 5 8 5 6 8 9 7 7 8 7 9 8 8 12 15 13 12 10 8 6 3 4 1 4 4 5 2 9 17 9 9 6 7 4 11 14 11 7 15 13 17 16 7 9 14 14 13 14 11 8 10 9 15 6 11 13 8 14 12 12 13 21 9 10 9 15 15 16 19 22 22 26 26 25 23 23 22 20 20 19 19 20 21
2 4 3 7 5 10 11 6 7 6 7 6 10 9 7 7 12 12 7 5 4 6 3 4 5 7 7 5 4 5 2 3 4 16 10 3 5 7 3 9 10 14 14 15 14 15 11 12 9 10 11 11 7 6 2 4 14 13 11 12 11 13 11 13 18 22 12 18 10 6 11 26 22 17 18 19 22 23 23 24 22 22 22 21 18 18 16 18
5 4 3 5 4 8 6 7 10 12 13 10 9 5 8 12 11 9 6 9 9 5 5 3 6 6 3 4 2 8 4 4 7 14 3 3 3 6 5 4 8 11 14 15 10 14 14 15 5 8 7 3 1 2 5 4 3 10 17 17 13 12 12 18 14 7 15 16 18 16 20 21 24 29 33 33 33 34 31 27 23 21 22 20 21 22 21 21
5 6 8 4 6 5 8 6 3 10 13 10 9 7 7 8 7 5 5 11 10 7 6 6 8 12 9 6 5 6 2 11 7 5 12 6 2 5 6 5 2 4 11 8 15 10 15 9 8 8 8 3 7 8 3 7 5 5 5 10 13 20 18 15 8 8 14 5 7 25 26 19 15 23 19 18 18 23 23 21 23 25 25 24 24 24 24 23
7 8 6 4 6 13 12 8 7 5 6 8 6 5 6 6 7 9 6 3 9 7 5 8 9 13 9 8 5 8 3 3 4 9 5 5 4 3 4 5 5 7 5 14 17 4 13 11 9 8 7 5 6 9 10 4 6 10 4 3 3 6 10 6 7 6 11 12 4 16 18 8 4 15 18 19 22 22 23 25 25 24 25 27 26 25 25 25
9 8 11 13 15 10 4 5 6 5 5 3 4 6 3 3 3 5 10 4 5 4 6 4 6 13 5 8 9 6 2 2 3 4 5 7 10 5 7 6 6 4 5 12 12 9 11 6 4 9 11 5 5 10 8 10 6 9 5 4 6 11 11 8 16 11 12 14 16 17 11 12 9 19 20 23 25 28 29 27 26 25 26 27 29 26 25 23
9 5 6 7 9 8 8 8 8 2 4 6 6 4 5 5 4 6 11 6 2 5 4 4 5 4 8 11 8 7 6 5 4 6 5 6 2 1 2 4 7 12 14 13 5 16 14 15 11 6 11 8 2 11 8 6 6 4 3 4 7 7 6 5 5 4 5 26 25 18 22 19 23 25 30 27 30 28 27 29 28 26 26 28 28 29 25 22
Wind_Speed
16 14 15 13 12 12 11 11 12 12 13 12 12 13 13 13 14 14 15 16 15 15 15 15 16 16 16 16 17 18 15 8 12 7 4 17 6 12 11 5 5 1 7 2 1 0 1 1 3 1 3 3 1 3 3 1 2 2 2 3 3 4 3 4 4 6 1 2 6 6 4 3 1 2 2 11 11 11 9 8 3 10 9 9 10 14 14 14
14 15 14 16 14 11 11 12 11 12 12 13 12 12 13 13 14 14 15 16 16 15 15 14 15 15 16 16 17 15 12 7 11 13 19 7 9 16 17 15 4 7 7 4 3 2 4 0 1 2 4 2 1 1 2 1 1 3 1 3 8 5 6 5 3 5 1 6 5 8 4 2 3 4 1 7 7 10 10 5 5 11 11 13 13 14 14 14
14 14 14 15 15 14 12 12 12 11 12 12 13 13 12 13 14 14 14 15 16 15 15 15 15 15 16 16 16 12 9 11 6 10 16 11 25 20 19 14 12 8 2 2 3 4 3 6 5 4 1 3 0 2 2 1 3 4 5 5 6 6 4 4 3 5 5 6 8 8 3 1 5 1 2 6 11 7 13 10 7 10 14 16 14 15 13 13
16 15 15 14 16 16 15 13 13 14 12 12 12 13 13 13 14 13 14 15 15 14 15 15 15 15 15 15 14 7 6 5 4 6 2 8 11 15 18 17 13 11 3 1 3 4 2 5 5 4 1 3 1 0 4 3 3 1 3 5 3 4 2 5 6 9 9 3 4 4 4 3 3 0 4 10 10 2 5 13 20 16 19 18 16 15 13 14
17 16 15 14 15 16 15 15 14 15 13 12 12 13 13 13 13 13 14 14 15 14 14 14 15 14 15 15 12 4 5 3 3 2 4 10 6 10 14 18 14 8 8 3 3 1 2 2 3 1 2 3 0 1 2 2 2 3 6 4 4 1 1 8 6 7 3 2 2 4 6 1 1 4 7 8 12 12 15 13 1 19 20 23 18 15 13 14
16 16 16 16 15 15 16 16 15 14 14 13 12 12 13 13 13 13 13 14 14 14 14 13 14 14 15 13 5 1 1 3 1 1 12 11 8 10 11 12 16 11 8 6 4 4 5 1 3 3 1 2 5 6 2 2 2 3 2 3 5 5 5 1 1 1 2 2 5 9 1 0 1 5 4 2 2 4 3 3 7 7 18 16 15 16 16 13
17 16 16 16 16 15 15 15 15 15 15 14 13 12 11 12 13 13 12 13 14 13 14 13 13 14 13 8 2 2 4 9 2 5 14 13 12 11 4 13 16 11 8 6 3 5 4 4 3 3 4 2 0 3 2 1 0 3 4 0 4 4 8 5 6 5 2 1 6 6 1 3 7 8 0 3 4 4 8 11 14 15 15 15 14 13 13 11
18 17 17 17 16 16 15 14 15 15 15 15 14 13 11 11 13 12 12 12 13 13 13 13 12 13 10 4 4 1 1 11 8 4 14 16 12 9 7 9 14 11 9 10 9 6 5 7 7 3 3 8 3 6 1 1 0 3 3 2 4 1 5 5 5 5 0 4 8 4 2 2 3 6 3 5 4 8 12 13 16 15 14 13 12 12 13 11
18 17 17 16 16 16 14 15 14 14 15 16 15 13 12 11 11 10 11 11 12 13 12 12 12 12 6 1 0 4 10 8 2 7 11 13 11 7 7 4 8 13 8 6 6 6 8 5 4 5 4 2 2 5 1 3 5 4 5 3 3 4 6 5 5 6 2 2 1 3 6 7 10 10 7 5 8 10 13 14 14 14 16 15 12 11 9 9
18 17 17 17 17 16 15 14 14 14 14 17 15 14 12 10 9 10 10 11 12 12 12 11 11 10 5 3 2 3 8 4 3 6 7 10 10 5 8 5 8 8 8 5 4 5 5 5 7 4 4 1 3 2 1 4 4 2 4 4 5 7 4 4 3 1 2 3 5 4 4 5 2 2 2 3 2 12 12 12 11 13 15 12 10 9 8 10
17 18 17 17 17 17 16 14 13 15 14 16 16 14 13 10 9 7 8 11 11 12 11 11 11 7 2 4 1 8 4 2 1 6 8 8 8 6 3 3 3 6 8 5 6 7 4 7 3 3 0 3 4 1 2 2 1 3 3 2 4 5 4 6 4 8 2 2 4 10 4 0 4 2 7 7 1 9 11 12 12 11 12 10 11 9 10 10
17 17 17 17 17 17 16 14 14 13 13 14 14 15 14 12 9 5 8 8 10 11 10 10 10 2 3 4 7 12 3 3 6 9 9 6 5 4 4 4 3 4 9 8 6 2 5 4 4 2 2 1 1 0 1 2 0 1 1 2 5 6 3 1 4 2 5 1 5 5 7 1 4 3 10 10 6 7 11 10 11 8 7 10 11 11 9 9
17 17 16 17 17 16 16 14 14 14 12 12 14 15 14 13 9 8 7 7 9 11 11 9 5 1 3 9 14 19 18 15 12 12 12 3 5 4 5 3 3 3 4 7 4 3 3 3 2 3 0 3 3 2 1 1 2 0 2 1 4 5 4 5 1 1 1 1 11 5 3 5 4 1 8 4 6 7 12 9 9 6 4 5 6 11 10 10
17 17 16 16 16 16 16 15 14 14 13 12 13 12 14 12 11 9 6 7 9 10 10 10 1 1 2 9 7 5 5 5 7 11 12 2 1 3 0 1 3 2 2 3 2 3 3 1 3 1 0 1 1 1 2 3 3 3 1 3 0 0 3 2 1 1 5 1 10 2 4 4 2 5 5 5 8 13 13 10 8 11 11 7 3 9 11 11
17 17 16 16 16 16 15 14 14 15 14 12 12 10 12 10 11 8 7 7 7 9 10 6 1 1 4 11 7 14 19 9 7 11 5 2 1 4 1 3 2 3 3 5 3 3 4 2 1 0 1 1 1 1 2 2 4 1 2 3 4 3 5 8 2 4 6 1 1 4 1 4 6 7 8 8 6 7 9 11 13 11 7 9 5 9 10 9
18 17 16 15 15 15 15 14 13 14 14 12 11 10 9 12 12 10 8 8 8 9 2 1 1 3 5 12 6 5 1 1 4 5 6 7 4 4 1 4 3 4 6 1 3 3 2 4 3 6 1 2 5 6 4 1 1 5 2 2 2 1 4 6 1 2 4 3 3 3 3 5 3 5 8 7 6 6 10 9 13 13 6 4 4 7 9 9
17 17 17 16 15 14 14 14 13 13 13 12 10 9 10 10 11 9 8 9 4 1 2 1 1 3 3 4 4 2 1 3 4 3 4 5 6 5 2 0 1 4 4 5 3 6 1 4 1 2 1 3 4 6 4 1 3 2 2 2 3 3 2 2 6 1 3 2 2 4 7 6 1 10 10 8 7 6 11 12 11 9 8 6 1 7 7 7
17 17 17 16 15 14 13 13 13 14 13 11 10 6 6 8 10 10 5 1 0 1 3 1 1 2 12 4 6 3 2 5 7 7 7 2 4 4 3 1 2 6 5 3 1 3 1 2 1 5 1 3 3 5 9 10 8 4 3 1 1 1 2 4 1 1 1 7 9 1 5 8 1 7 7 2 6 7 9 13 12 9 10 9 2 7 8 7
17 16 16 16 15 14 13 13 13 12 9 9 9 8 10 10 3 1 1 1 2 0 1 3 6 5 1 3 4 5 7 11 8 3 3 4 2 3 2 3 6 8 4 4 1 5 1 3 3 3 8 7 9 7 7 3 7 6 7 6 3 5 3 2 4 3 2 5 8 5 6 4 5 8 10 13 15 11 11 4 6 9 9 11 8 7 7 8
17 15 15 15 15 14 13 13 13 12 8 4 2 3 1 0 0 2 1 2 5 5 3 3 10 4 11 4 2 7 9 2 3 2 3 2 7 4 2 3 1 3 6 7 3 4 4 6 8 11 7 7 5 8 6 5 5 4 3 4 3 2 3 4 3 3 4 6 9 3 5 6 7 6 8 9 15 9 5 2 7 9 9 10 11 11 11 9
17 15 14 15 14 14 13 12 12 10 8 2 4 2 2 4 2 3 1 6 11 11 13 8 12 13 12 5 7 13 12 7 1 3 2 1 1 9 2 3 3 3 3 7 8 1 5 5 8 2 5 8 8 7 6 5 2 4 3 2 0 1 2 0 3 8 6 5 5 5 11 9 7 7 6 3 11 9 7 8 6 4 1 7 12 12 10 10
17 16 14 13 14 14 12 11 11 8 6 3 4 4 1 0 2 3 1 4 4 12 12 16 12 12 11 14 8 3 3 4 11 5 6 4 4 9 2 4 4 7 3 5 6 4 7 9 4 4 7 8 6 7 7 7 2 2 2 1 1 5 2 3 3 5 6 7 3 4 10 7 7 8 7 5 4 9 6 3 4 10 8 2 8 12 12 9
17 15 13 11 11 11 12 10 8 4 2 3 3 4 4 2 4 2 2 3 8 8 11 12 10 14 14 8 5 5 3 6 7 6 2 4 3 6 7 5 6 5 3 6 10 6 5 6 7 4 8 10 3 6 7 5 3 4 3 2 4 3 2 2 3 4 5 2 7 4 11 4 6 9 9 5 3 7 9 4 6 6 3 5 4 10 11 9
17 14 13 12 10 10 9 3 2 2 4 7 7 5 2 4 3 5 2 1 5 4 9 11 14 10 10 5 4 10 7 4 4 6 5 3 7 4 6 6 7 5 8 5 6 8 4 2 7 8 8 11 7 5 9 7 5 0 5 4 3 1 1 2 2 3 6 10 8 12 7 4 3 5 5 5 4 10 8 6 7 7 6 3 5 10 7 9
16 14 12 11 9 4 3 2 0 4 2 5 7 2 2 6 3 2 3 3 2 7 6 6 5 5 5 4 5 5 4 3 8 3 2 3 4 5 4 2 4 6 6 6 7 6 3 1 8 9 5 6 8 6 7 9 6 2 3 6 5 2 6 3 3 3 4 2 2 3 4 1 2 4 5 4 4 8 5 7 8 6 6 4 7 6 6 9
15 14 10 8 2 4 6 3 3 3 5 3 2 3 4 5 4 4 2 1 5 3 3 6 8 7 8 3 6 5 2 4 8 11 4 3 3 2 3 3 3 8 5 8 7 4 5 1 7 9 6 5 6 5 5 8 6 5 6 6 4 5 6 5 3 4 1 3 5 2 5 1 2 5 5 5 6 8 5 6 3 8 7 4 5 2 5 8
14 12 10 6 2 7 3 2 0 5 4 3 3 3 2 1 2 4 2 2 4 5 8 0 4 1 5 10 10 6 2 6 1 2 4 5 3 1 8 4 3 2 4 2 2 4 3 4 5 5 8 8 6 7 5 8 8 4 2 8 7 8 7 4 4 1 2 1 3 1 2 5 2 4 5 7 8 7 7 6 3 3 9 8 5 2 6 7
13 13 9 6 0 5 2 0 2 5 3 2 2 4 4 1 1 2 1 1 1 4 2 2 4 3 2 9 11 10 4 3 5 3 6 4 2 1 3 6 6 8 3 4 10 2 7 5 7 6 5 6 8 3 6 8 7 4 3 9 8 9 6 5 2 2 2 4 1 3 0 5 1 4 6 9 9 7 8 9 8 8 7 13 7 4 6 8
12 12 9 4 6 12 2 3 2 3 1 3 1 1 1 1 0 3 2 2 1 1 3 7 3 3 2 9 7 11 1 1 1 4 3 1 3 2 3 5 6 8 1 8 7 1 1 9 9 10 7 7 4 6 10 8 4 2 5 3 2 3 3 5 3 1 1 2 3 6 3 4 0 7 6 7 7 9 9 11 11 9 10 7 8 5 6 9
12 11 9 2 3 3 1 1 3 2 3 1 1 1 2 2 3 0 2 3 1 2 1 0 2 5 6 10 6 7 2 2 1 3 2 3 5 0 1 5 5 6 2 2 5 7 1 0 11 6 8 4 6 4 9 8 3 6 8 5 3 4 3 3 5 4 2 1 4 9 6 6 2 7 10 12 11 14 9 8 9 11 10 10 8 7 8 8
12 11 11 8 1 1 2 3 4 4 2 2 3 4 6 2 3 1 2 1 1 1 2 2 2 8 10 12 9 5 3 2 1 7 6 3 3 0 3 2 3 5 3 2 4 3 0 3 3 2 8 4 7 4 2 9 6 10 3 4 6 2 3 3 3 3 2 4 2 6 9 5 6 3 6 7 1 10 17 15 16 15 13 11 9 7 10 8
11 9 7 3 3 1 1 0 1 0 2 1 2 6 2 4 3 3 3 2 2 3 2 1 3 7 10 5 5 9 7 1 1 7 11 9 6 7 10 7 6 7 6 5 4 1 3 2 2 1 8 12 5 8 2 3 4 6 4 4 8 1 2 3 1 3 5 3 1 2 7 2 5 6 10 14 5 11 9 11 16 15 15 13 10 10 8 8
10 9 7 4 5 1 2 3 4 2 1 2 5 3 1 2 3 4 4 6 3 5 3 1 4 5 8 5 4 7 2 4 2 4 9 4 8 2 1 5 4 5 6 1 5 4 3 1 2 2 3 7 9 11 4 5 5 8 9 7 6 3 4 6 3 0 2 2 2 2 3 2 2 3 4 5 6 11 10 9 10 13 14 14 11 10 10 8
10 8 2 3 3 2 2 2 2 2 1 1 5 3 1 1 2 3 2 2 4 8 6 3 3 4 8 6 4 8 3 2 4 5 9 8 9 9 5 1 9 3 6 4 6 6 5 6 8 4 2 3 9 7 9 5 7 5 4 9 7 4 4 5 3 6 4 3 2 1 5 4 6 3 2 5 4 12 12 11 10 11 11 12 11 9 11 9
11 5 0 3 2 4 6 5 2 3 2 2 4 3 2 3 1 1 0 5 3 7 5 6 2 5 4 2 1 6 3 2 3 6 5 11 11 9 10 7 1 6 4 9 4 3 9 0 5 7 3 8 8 3 7 8 5 1 3 7 6 10 5 1 4 4 4 4 2 1 2 1 2 4 5 2 10 12 12 12 12 11 10 12 10 9 9 7
5 2 1 2 1 2 3 4 4 2 2 2 2 4 4 1 2 2 3 4 4 7 12 6 7 3 2 2 0 9 6 1 3 5 2 7 4 7 3 3 6 5 6 6 3 2 3 5 2 4 2 8 8 6 4 8 7 5 6 9 6 4 5 4 1 1 2 4 2 2 3 2 1 2 3 9 13 14 13 11 11 12 12 11 10 8 10 7
3 4 2 2 1 2 3 3 3 2 1 2 2 2 3 2 1 2 5 7 9 11 5 3 3 2 4 5 3 7 5 4 2 4 4 3 2 5 6 2 4 3 6 8 1 2 9 2 2 5 4 4 4 13 5 5 6 6 6 7 3 2 5 3 2 1 2 4 3 3 4 6 5 2 5 9 15 16 14 14 11 13 11 11 10 9 10 9
3 3 1 2 3 1 2 3 2 1 1 2 3 4 2 2 1 3 4 7 9 6 3 1 2 6 4 2 3 8 3 3 3 2 3 4 1 4 6 4 4 7 6 1 7 4 5 1 3 5 9 6 1 5 5 3 7 10 8 5 8 3 8 2 3 1 1 2 2 2 4 2 7 4 10 12 15 15 15 15 15 16 13 13 12 11 10 10
1 0 1 3 3 1 1 1 0 1 2 2 0 4 1 2 2 3 4 7 7 8 3 2 0 1 4 3 2 1 3 3 2 3 7 4 2 5 8 4 4 6 8 5 2 2 1 2 0 3 8 4 4 7 10 9 4 4 7 9 4 4 3 4 6 3 6 3 1 4 4 4 7 6 16 14 18 17 16 17 15 16 13 12 12 11 12 11
3 1 2 2 2 0 0 1 2 0 2 1 0 1 2 3 4 4 6 4 5 3 1 3 1 2 2 1 3 4 1 5 5 2 2 2 2 0 6 7 5 6 6 4 2 2 1 1 1 2 3 7 7 7 11 11 10 4 5 5 2 1 2 6 1 3 4 5 4 2 3 4 5 9 15 18 18 15 18 14 11 11 13 13 14 12 11 11
0 2 2 1 1 3 3 2 1 3 1 1 2 3 3 3 5 6 9 8 6 6 6 3 2 1 1 1 1 1 2 2 2 1 1 3 3 1 4 6 7 9 3 1 2 1 2 1 4 1 4 8 4 2 4 8 9 7 7 6 7 6 5 9 7 3 3 5 3 5 6 4 4 2 13 14 14 13 14 14 10 11 13 13 11 11 13 11
2 2 3 3 3 3 3 3 2 1 1 2 1 1 3 5 5 7 7 3 5 4 4 3 2 2 1 0 2 1 3 2 1 2 0 4 2 1 3 8 9 9 8 5 4 4 4 3 3 1 5 5 4 2 4 11 9 8 9 6 7 3 6 5 5 4 4 0 3 3 1 2 3 3 2 12 12 13 14 15 12 12 13 12 11 11 11 12
4 0 3 2 2 2 3 1 0 0 2 2 4 7 6 5 5 4 5 3 2 5 2 2 3 1 2 1 0 2 5 1 3 3 2 2 2 8 5 11 9 11 9 3 3 4 3 1 3 2 5 5 3 3 0 6 12 4 6 5 7 7 7 7 4 7 6 3 2 0 1 2 3 2 4 11 12 12 12 14 16 13 11 11 11 11 12 11
1 1 2 0 1 3 3 2 2 1 2 3 4 6 5 5 3 4 4 2 2 4 2 2 2 2 1 1 1 1 2 3 2 4 0 1 1 5 7 8 11 6 9 6 6 3 3 2 6 1 1 0 4 3 2 1 1 4 5 5 8 6 3 2 6 2 3 8 9 7 5 2 1 1 8 13 14 13 13 12 16 14 10 11 11 11 10 12
1 1 0 1 1 1 3 2 3 2 3 5 4 5 5 3 5 8 6 5 4 4 1 2 3 0 2 1 0 1 0 2 1 2 2 4 3 1 4 9 8 5 5 7 7 7 3 3 4 3 7 7 7 8 8 6 9 1 1 6 6 11 6 5 5 2 7 2 4 3 2 4 2 5 11 14 14 12 12 13 11 14 13 12 10 10 11 12
1 0 1 1 1 2 3 2 2 3 4 4 3 3 3 4 2 4 7 8 8 6 4 3 4 1 2 0 1 2 2 1 2 3 2 1 1 1 1 8 9 5 4 12 8 8 3 1 4 6 6 6 6 3 2 4 3 5 4 7 7 5 9 7 6 6 9 3 6 4 8 7 8 12 14 14 15 15 15 14 13 13 13 12 12 11 12 11
0 0 0 2 1 3 5 2 3 3 2 2 3 3 3 3 6 5 4 1 2 1 1 1 2 2 3 2 1 2 0 1 1 8 4 1 2 2 2 7 6 10 11 7 10 6 3 3 5 6 6 7 4 3 1 0 5 7 6 7 7 9 6 8 8 8 5 10 5 1 6 14 13 12 12 13 14 14 13 14 13 13 14 13 11 11 11 11
1 1 1 1 0 2 2 2 5 5 8 5 3 2 4 6 5 3 1 4 6 2 1 1 3 3 1 1 0 2 2 1 2 5 1 0 1 3 2 3 3 6 8 5 6 4 5 4 3 4 5 1 0 1 2 2 1 3 9 10 8 8 9 11 7 4 10 7 8 10 13 12 13 17 20 21 20 21 20 17 15 14 13 12 13 14 14 13
2 2 3 2 1 1 4 4 1 6 8 5 2 2 3 4 4 2 1 4 3 3 1 2 5 9 5 3 2 2 0 3 1 1 2 1 0 1 2 2 0 3 4 2 5 1 4 3 4 5 4 0 3 2 1 5 1 2 1 7 9 14 12 10 4 5 9 3 4 16 18 12 8 13 12 10 9 12 12 11 13 15 16 15 15 15 15 15
2 3 2 1 2 6 6 4 3 3 3 4 3 3 2 3 5 6 3 1 3 4 3 4 6 9 6 4 2 3 0 1 1 3 2 3 1 0 1 2 1 4 1 5 5 2 4 3 6 4 3 0 4 5 7 2 3 4 2 1 1 2 4 2 4 3 7 8 2 11 12 5 1 9 11 11 12 12 12 15 16 16 16 17 17 16 16 16
3 3 4 5 6 4 2 2 2 1 1 1 1 3 1 1 2 3 5 2 3 2 3 3 4 9 3 6 6 4 1 1 3 3 3 3 5 2 2 2 3 2 2 3 3 1 3 1 2 3 5 1 3 4 4 5 4 3 2 2 3 6 6 3 4 5 6 7 9 10 5 4 3 12 12 14 16 17 18 18 16 15 17 18 18 17 16 15
3 2 3 3 3 3 4 5 4 0 1 2 2 2 1 3 3 3 3 3 1 2 1 3 4 3 5 8 6 5 4 2 2 2 2 3 0 0 1 1 4 6 6 4 0 5 4 5 3 1 5 1 1 1 4 3 4 1 2 2 3 5 3 0 3 3 1 15 13 9 11 8 13 15 18 17 19 18 17 17 16 17 17 18 18 18 16 15
Wind_Direction
296 292 291 286 284 292 292 294 299 301 302 306 305 310 312 316 316 321 322 320 320 323 321 322 323 321 322 325 325 323 334 335 313 309 291 245 214 247 244 212 41 349 206 174 355 141 359 38 106 355 91 98 242 130 220 99 140 70 156 127 238 198 158 208 183 189 211 270 295 328 332 328 43 358 121 72 50 82 90 76 65 45 52 87 99 101 117 124
325 300 289 289 285 278 282 282 287 295 298 298 302 301 311 314 316 317 324 323 320 321 322 320 322 325 326 323 326 333 342 315 300 283 247 222 207 226 237 234 186 116 114 82 134 135 115 123 179 99 130 123 306 121 123 220 125 136 116 118 227 178 239 160 200 224 336 274 278 298 307 245 178 145 209 104 124 115 91 74 75 91 83 90 101 115 121 129
326 323 306 298 290 280 272 277 279 281 290 294 298 303 307 313 314 317 320 322 318 319 320 321 319 319 322 324 322 357 345 316 297 267 272 225 228 223 224 219 198 169 150 136 196 148 155 195 165 114 126 98 355 158 148 226 151 222 125 224 244 212 240 206 221 258 207 266 298 298 304 191 166 113 87 131 136 126 136 132 123 131 127 126 124 128 132 136
323 320 320 308 292 287 282 276 285 284 285 290 293 299 303 306 310 316 318 318 317 319 320 321 321 325 318 321 335 347 11 285 276 244 253 270 226 231 233 226 197 189 122 237 162 180 131 92 115 114 109 99 273 108 151 226 143 269 156 200 228 220 231 258 219 242 259 234 262 279 311 140 174 166 117 138 105 178 223 179 160 162 147 140 136 136 139 141
327 320 316 315 305 289 282 279 273 275 280 281 285 292 299 303 310 312 317 315 317 321 321 318 319 319 323 322 346 16 314 5 266 176 321 332 278 245 226 219 189 163 163 145 95 132 145 132 119 56 100 177 14 84 248 237 196 112 211 188 221 232 236 253 240 237 243 235 264 310 359 275 87 73 134 151 157 190 195 204 260 146 147 147 145 146 144 148
324 320 314 312 311 303 290 284 278 272 273 277 279 288 294 302 306 310 316 316 320 320 320 320 317 320 322 340 344 91 171 184 294 71 335 348 316 287 236 195 174 145 138 133 144 160 134 76 97 147 118 105 183 153 265 184 147 226 309 245 231 231 235 250 210 197 118 347 327 309 267 97 127 116 173 347 286 319 69 64 88 134 142 136 133 141 150 149
320 319 318 314 309 308 299 284 287 281 271 269 277 283 290 298 302 308 312 316 317 319 319 317 317 317 334 346 332 133 210 286 329 276 356 6 356 353 248 164 151 140 149 140 148 150 164 132 114 171 118 96 295 174 246 146 22 175 244 243 291 204 233 253 274 309 329 14 282 254 34 156 139 129 242 51 328 97 82 94 108 127 135 137 135 146 143 137
317 318 317 314 309 306 306 296 285 284 279 270 269 275 283 293 301 308 317 314 316 318 319 318 319 319 344 360 358 309 287 248 260 322 0 7 4 14 102 133 142 142 147 172 171 168 141 142 169 147 100 156 214 152 234 175 48 190 247 251 267 227 240 260 255 274 251 241 252 352 107 95 132 128 94 7 80 96 104 115 124 132 136 135 137 137 140 134
317 314 313 312 308 306 304 300 290 284 288 276 264 269 279 286 294 306 309 314 317 316 319 319 319 323 30 78 172 319 248 249 14 357 12 5 353 46 58 120 149 148 166 154 176 174 140 217 145 179 210 164 184 152 227 151 298 194 220 223 258 272 276 273 294 268 207 247 217 61 69 101 107 98 55 317 118 116 126 126 132 138 143 147 143 138 131 128
314 315 311 310 309 306 304 303 295 284 276 275 265 265 270 281 288 298 306 310 313 317 314 317 317 337 24 28 320 234 266 194 19 12 3 1 346 19 41 141 161 140 124 168 129 141 173 196 165 189 130 124 148 189 145 141 222 183 222 231 244 259 300 296 216 296 133 203 209 121 120 140 291 64 154 281 331 131 134 133 136 147 147 140 130 129 124 117
310 310 310 308 308 307 302 299 296 285 280 278 275 265 266 270 282 298 304 307 309 307 316 312 315 332 10 88 295 231 261 88 18 352 349 354 340 28 27 113 182 136 131 149 172 184 177 153 170 124 343 223 147 250 136 210 167 178 204 285 277 291 257 247 302 272 141 251 217 132 151 50 338 68 158 157 303 147 140 146 149 151 150 135 129 117 112 108
306 306 307 306 305 305 303 298 297 294 282 280 288 283 267 273 281 280 294 305 305 306 308 313 313 342 260 278 238 225 328 300 321 323 326 332 311 282 239 191 153 152 137 159 205 188 159 162 129 117 173 155 114 139 247 252 8 257 185 298 301 341 341 262 211 274 173 248 166 149 80 33 355 149 154 149 135 137 139 145 155 151 141 136 125 115 107 108
301 302 302 304 303 304 304 302 298 296 290 277 271 273 267 268 273 270 278 291 299 302 303 303 324 78 16 284 242 249 274 282 307 316 308 286 264 260 225 208 155 142 144 149 190 206 224 142 101 98 198 117 176 125 216 48 277 47 47 111 341 355 333 275 239 147 113 237 174 175 129 268 297 138 161 124 143 119 128 143 153 159 84 35 111 111 100 96
297 298 299 300 302 303 302 303 301 298 294 278 264 272 283 271 277 275 273 280 301 303 305 304 77 233 207 250 279 281 271 280 291 302 276 277 229 296 31 186 162 107 119 117 142 170 201 274 102 133 169 116 160 277 39 338 20 183 253 58 127 7 261 279 123 150 143 230 188 48 169 273 310 148 147 162 157 149 141 111 20 34 40 343 12 87 93 85
294 294 296 297 299 300 298 297 299 298 295 287 277 267 271 282 274 271 272 291 291 296 297 328 33 16 264 266 285 269 258 259 265 250 255 208 185 320 347 132 133 160 157 142 134 173 178 79 74 83 271 278 71 21 354 22 7 8 92 284 322 164 279 295 201 169 138 308 187 91 61 231 190 178 167 172 164 161 125 130 108 70 9 333 6 75 81 86
292 291 292 294 295 297 293 294 294 293 291 289 287 280 287 285 281 274 277 276 283 283 329 8 295 150 315 290 262 298 332 200 276 248 234 189 177 210 224 120 116 104 106 136 138 128 134 140 148 187 179 26 71 102 45 52 336 352 142 269 228 161 257 343 161 152 120 125 5 163 183 108 182 183 163 169 158 143 107 83 93 124 134 4 334 76 93 92
289 289 290 290 291 293 293 290 292 291 288 282 287 287 280 279 279 279 281 284 276 273 148 234 104 172 237 225 314 321 300 265 272 325 1 204 185 166 140 338 119 87 73 79 118 96 110 141 218 74 38 137 163 102 93 309 302 241 12 168 212 173 253 260 300 68 84 97 141 16 120 197 174 162 159 166 146 121 103 108 121 155 143 126 324 90 92 93
295 286 285 286 288 289 290 290 289 294 295 292 272 278 286 290 284 283 284 297 60 185 207 249 241 263 264 282 289 256 290 301 324 303 292 267 163 157 141 130 57 106 109 70 13 121 182 157 107 189 98 142 121 118 164 202 181 182 124 95 272 278 192 244 207 253 38 35 86 359 128 175 151 142 113 36 132 103 106 133 157 147 130 108 139 109 108 105
300 290 280 281 283 285 285 286 285 291 301 293 293 279 273 281 306 105 188 147 103 2 351 220 156 174 241 289 280 345 336 297 280 247 279 126 152 135 101 106 108 122 122 107 254 130 129 67 51 108 184 174 189 163 146 173 146 166 162 174 164 153 216 221 260 307 71 65 55 62 163 145 118 105 47 55 54 67 108 131 132 160 141 144 139 129 119 106
302 295 284 279 277 281 284 281 282 285 300 273 263 256 304 40 350 311 203 192 219 199 206 141 216 308 324 294 37 337 304 278 350 258 291 288 114 122 120 120 75 69 120 167 150 200 136 154 187 198 186 170 145 147 157 176 147 124 88 105 179 186 283 285 290 321 31 80 39 8 85 72 48 53 91 75 94 91 84 168 155 147 142 144 138 123 114 110
310 296 289 281 276 274 278 278 279 285 288 234 234 230 223 197 175 240 134 226 217 237 258 250 193 230 245 300 333 11 3 325 46 297 248 148 122 127 205 123 119 115 165 148 145 245 109 169 218 171 159 155 161 153 114 91 50 127 110 109 231 189 219 347 7 342 353 103 47 59 76 55 55 56 75 14 90 81 162 188 136 62 36 139 123 112 103 108
318 306 292 286 278 272 271 278 278 280 283 211 206 211 187 183 53 42 318 294 235 226 236 248 252 254 257 267 293 353 333 296 312 285 283 162 209 167 218 129 143 164 174 130 84 126 177 203 177 192 158 134 136 150 152 148 142 84 160 176 114 270 244 289 34 11 357 77 105 95 82 58 56 70 61 58 76 118 65 344 83 94 336 334 113 109 108 97
322 312 297 287 280 273 269 275 314 333 199 207 219 199 200 146 72 353 292 279 279 224 217 230 249 252 259 262 252 165 184 226 255 301 268 148 161 190 140 130 147 155 145 158 158 130 162 236 212 159 136 118 99 141 142 139 120 128 87 119 212 251 125 245 340 12 21 106 142 112 89 70 76 71 73 38 59 90 101 56 46 74 63 291 111 106 104 104
327 317 302 290 282 273 279 336 321 265 225 226 227 211 35 90 10 355 66 242 287 261 194 214 212 229 233 202 190 175 183 243 162 272 276 155 161 167 133 148 138 139 181 155 141 157 173 222 170 137 147 138 147 154 142 148 187 305 155 153 215 239 227 152 169 68 66 63 108 100 73 79 29 96 83 65 57 94 108 112 60 28 40 5 37 85 85 98
330 322 310 291 303 335 14 47 241 217 198 229 242 128 28 320 287 215 146 291 252 272 202 242 177 233 216 137 120 161 223 268 214 243 299 147 170 126 200 158 117 190 145 148 108 135 245 280 138 137 140 141 139 154 174 138 157 212 246 185 190 183 99 88 66 78 34 27 288 108 77 82 103 83 120 85 82 80 113 112 81 48 42 357 41 49 91 86
336 323 314 307 256 209 164 158 219 170 160 211 123 97 145 231 230 197 181 256 288 240 105 243 146 252 132 184 151 178 92 266 200 216 198 232 240 153 124 170 138 188 154 137 154 165 197 143 148 154 146 149 154 166 201 152 158 137 251 175 168 128 123 118 138 74 62 140 229 99 130 240 120 149 161 117 100 100 75 97 99 89 63 61 84 18 77 94
337 330 316 303 203 143 109 248 94 127 158 153 73 18 287 284 155 201 203 318 313 197 162 323 160 230 166 178 158 150 110 260 96 137 187 257 210 199 143 196 79 83 160 149 76 236 142 142 149 123 147 161 148 188 215 148 129 204 242 160 133 114 128 186 117 116 190 178 54 83 119 128 169 175 146 125 107 112 115 118 92 78 100 69 19 86 115 98
342 342 326 307 270 176 181 319 172 156 112 106 234 191 231 132 123 213 207 107 283 136 140 229 223 139 151 165 159 171 201 127 129 222 198 197 167 344 116 184 156 152 174 123 181 262 160 166 160 161 154 162 191 177 155 151 138 213 192 162 169 151 171 153 122 128 151 117 350 237 262 72 123 143 137 150 125 140 172 158 157 142 135 129 113 328 105 97
340 348 337 321 168 187 122 89 345 124 155 196 221 251 34 191 253 175 175 159 67 90 106 103 260 95 54 136 174 208 320 252 112 183 159 105 222 134 119 200 139 148 122 144 154 201 279 175 176 154 156 191 167 157 151 147 125 268 165 155 101 80 84 148 138 98 17 74 237 195 199 107 258 142 153 169 163 172 186 172 156 145 135 110 115 134 87 89
340 358 355 354 107 148 211 136 154 217 236 127 267 78 64 55 165 232 58 269 99 297 183 183 192 187 142 148 195 223 260 306 24 117 115 146 211 357 337 149 127 133 99 81 146 196 174 352 160 145 184 167 145 163 160 171 173 125 118 95 56 40 52 31 61 96 56 296 232 189 194 125 188 186 174 169 195 185 150 150 148 141 126 119 121 138 111 100
335 350 355 330 40 193 155 185 206 242 197 213 204 106 79 344 178 216 234 236 39 299 54 157 178 118 143 159 177 211 256 318 48 155 133 144 158 191 123 86 58 70 72 79 177 250 90 84 124 235 137 151 125 114 227 174 142 132 149 123 96 15 21 30 349 39 176 262 258 183 179 158 182 209 217 212 146 176 165 165 155 146 137 131 133 132 110 108
328 339 320 342 268 287 232 81 298 167 258 214 136 78 130 168 2 176 217 360 120 342 150 145 115 144 169 182 154 165 182 129 239 167 155 169 155 159 190 163 151 129 170 163 203 329 278 134 240 230 159 143 148 111 182 178 140 138 111 92 128 227 72 249 50 237 204 177 306 272 136 37 251 216 203 193 176 170 172 160 151 142 136 129 135 120 112 124
323 328 325 290 299 19 341 133 220 239 63 110 63 81 156 105 217 248 304 326 84 7 336 353 176 164 169 153 209 171 186 167 211 170 137 132 142 218 264 142 177 125 161 224 114 144 287 311 325 311 149 174 147 150 168 157 203 143 158 158 133 142 182 208 261 158 332 288 274 169 236 201 282 283 316 192 188 147 131 127 130 134 134 132 130 125 127 126
315 322 289 256 248 218 233 244 209 201 143 72 113 82 7 86 258 74 320 11 313 350 321 22 354 137 153 174 197 156 161 265 145 178 161 157 159 178 225 280 146 86 86 158 142 175 147 226 250 164 212 180 170 174 173 147 141 187 102 146 173 129 161 208 194 201 206 193 297 277 133 229 141 247 303 292 146 120 116 115 113 116 119 118 121 125 118 116
312 323 157 326 316 263 240 242 233 227 159 92 95 198 178 233 10 291 43 0 340 336 309 326 144 123 187 254 137 178 157 199 175 131 164 154 188 182 181 182 248 111 133 133 233 120 204 146 253 197 195 170 171 157 132 107 96 249 161 77 115 214 130 143 203 142 169 135 72 193 182 328 20 301 288 143 123 115 120 124 124 119 122 123 126 131 119 116
344 314 104 274 247 260 204 190 202 200 165 72 157 204 233 339 254 23 31 329 325 349 329 337 125 115 166 223 47 182 247 133 214 118 135 167 134 172 184 153 177 173 139 153 194 125 113 221 285 185 84 172 165 153 187 146 178 216 117 203 203 140 97 87 65 68 105 72 203 138 89 211 149 350 126 146 129 135 128 130 125 128 134 130 128 130 120 124
357 328 39 285 248 238 184 156 169 173 176 219 237 236 335 342 32 349 346 341 316 307 306 86 185 119 189 195 168 177 210 84 141 113 176 128 152 180 169 197 152 131 173 127 267 192 147 228 278 125 198 255 194 163 177 183 140 116 183 213 96 114 108 128 221 348 53 176 222 100 167 150 146 198 203 148 140 145 141 143 137 133 136 133 137 141 137 141
341 327 266 6 309 284 139 168 189 136 181 228 253 284 65 300 107 329 326 314 313 313 300 105 282 104 192 128 165 166 227 109 199 91 152 194 217 171 149 155 189 164 201 251 140 237 121 91 269 195 177 180 99 135 169 201 165 168 182 183 145 209 236 294 92 230 137 263 276 311 194 207 192 179 158 158 146 155 149 142 143 147 149 145 146 143 136 131
340 50 21 330 329 108 129 110 98 108 172 189 317 286 6 303 292 276 279 291 286 286 297 247 118 278 141 137 188 75 139 148 175 131 123 219 122 198 171 147 186 195 188 162 85 177 78 133 295 281 172 184 140 150 191 198 313 38 101 167 179 140 217 113 199 173 115 215 69 300 120 225 191 180 173 168 164 159 153 154 159 156 147 146 144 145 142 138
29 47 326 304 342 329 241 246 265 47 66 119 297 263 6 298 292 280 276 299 320 355 273 297 331 340 29 196 151 139 42 118 145 219 98 198 101 270 183 164 157 186 189 191 154 160 85 99 125 282 277 143 192 193 200 178 176 146 150 174 215 199 234 107 31 117 170 166 182 157 278 251 238 171 178 176 171 172 163 154 148 145 147 145 144 147 142 138
39 100 294 314 358 327 331 310 42 47 45 323 299 286 307 278 320 288 295 282 257 241 233 266 309 331 218 76 63 131 101 101 108 96 119 165 142 140 241 179 142 173 122 187 141 203 72 109 184 310 142 197 217 240 157 175 174 174 154 186 168 108 121 160 226 40 86 103 194 141 241 275 262 266 180 170 167 156 160 146 133 137 142 142 145 146 141 137
31 44 313 337 332 352 335 30 27 18 354 302 253 245 278 300 289 282 293 298 232 260 225 242 239 222 204 224 166 88 118 105 137 91 282 151 216 136 217 162 158 150 149 180 172 240 145 167 102 170 202 198 211 207 204 169 171 173 161 204 172 152 124 145 192 226 61 74 106 148 116 279 258 294 214 155 153 153 148 144 133 139 142 145 147 145 139 139
28 224 251 292 290 335 355 50 270 229 277 239 283 276 263 269 253 270 299 287 299 222 233 202 222 155 241 147 146 126 134 112 151 176 211 138 218 210 208 168 149 151 140 218 137 209 132 92 131 283 307 295 313 307 129 183 165 167 211 166 146 201 189 173 161 181 145 148 97 298 185 253 296 343 133 124 131 137 140 144 141 145 145 144 144 137 134 126
319 314 328 15 358 6 310 348 353 332 277 280 282 276 276 263 249 298 243 262 253 349 322 307 331 194 293 184 176 181 191 104 251 140 8 251 229 231 150 170 157 160 154 219 161 212 146 283 124 106 58 333 1 21 38 37 157 175 186 197 194 172 113 146 104 76 141 208 164 134 227 261 300 58 122 123 130 141 144 149 144 143 145 143 142 137 133 130
315 292 252 326 59 8 298 10 324 327 317 311 307 308 326 297 224 235 248 265 269 260 300 269 220 122 284 237 207 66 49 134 139 243 139 185 221 14 155 152 184 156 182 179 170 163 150 195 141 144 160 163 176 181 196 191 201 233 331 179 195 171 144 121 168 144 202 266 133 151 208 257 133 124 132 138 139 140 147 149 148 144 146 142 137 131 133 135
348 342 298 331 176 256 264 262 272 270 299 308 309 289 278 286 297 248 239 268 244 257 243 267 296 216 262 48 39 43 39 44 124 178 147 223 317 328 160 174 168 179 222 164 153 135 171 139 145 155 151 175 198 206 241 141 104 192 207 181 195 190 181 153 115 133 195 191 176 223 163 154 161 166 154 159 153 151 154 154 153 147 143 140 141 143 146 147
202 141 168 309 340 223 255 247 256 244 260 319 301 3 301 305 289 310 170 308 250 220 289 194 326 32 339 60 49 70 342 77 124 135 173 132 260 244 310 175 206 193 175 159 156 96 98 163 209 155 192 207 177 200 194 285 196 189 154 195 190 171 174 145 166 211 160 105 231 288 180 141 194 179 168 152 154 152 154 155 151 149 148 147 143 139 139 138
13 278 191 222 282 269 20 283 206 237 256 260 267 305 284 317 341 334 317 221 281 309 134 316 42 64 33 30 131 91 358 52 86 151 42 15 336 328 53 14 158 248 181 157 179 131 138 168 253 139 234 139 191 250 251 162 161 222 187 166 185 182 172 181 198 174 146 169 204 190 176 175 185 189 182 174 170 166 163 160 150 143 137 138 141 142 144 144
197 260 253 3 324 246 189 255 280 242 266 238 243 260 292 324 329 7 312 309 344 338 34 76 338 341 338 343 119 123 114 100 25 324 154 123 169 14 56 16 219 337 166 116 177 171 122 213 182 167 170 158 4 8 326 163 135 69 329 198 180 169 192 187 165 183 167 162 178 160 178 188 195 183 166 156 142 139 140 135 136 144 151 147 146 147 149 150
2 336 304 6 227 276 268 257 236 258 301 325 321 273 296 322 343 340 324 353 336 310 352 76 334 334 331 359 61 71 10 130 158 133 228 117 16 105 141 190 224 338 142 162 173 262 148 254 132 118 134 172 348 20 50 55 101 132 340 7 68 132 82 64 99 95 81 49 71 149 159 175 280 146 141 131 130 130 132 150 155 155 152 152 150 155 156 157
308 289 310 321 309 263 254 258 298 348 306 326 156 282 304 308 335 330 290 232 228 262 17 17 345 327 341 10 44 26 292 153 103 93 176 143 129 203 122 259 154 131 124 153 177 172 145 229 53 89 135 257 332 30 48 51 53 94 83 21 107 145 157 196 145 204 138 145 125 121 129 207 212 137 131 139 145 153 157 159 160 162 161 155 156 159 160 160
271 251 295 347 283 328 341 316 297 196 355 215 189 250 303 268 270 344 332 307 293 252 253 59 336 3 329 27 16 350 330 187 229 214 183 206 184 344 102 126 153 156 160 178 342 136 155 130 154 143 140 249 267 23 55 53 66 48 237 292 263 311 322 43 21 97 170 140 127 140 211 190 154 146 143 157 161 160 159 166 163 161 164 162 161 162 163 160